User: anonymous   Login
Location: Góry Miechowskie
(50.3599°N, 20.1803°E)
Time: 02:17:14
(UTC+00:00)
Language:

AQUA - Orbit

View from above orbital plane
View from above orbital plane
View from above satellite
View from above satellite

Ground track
Ground track

The orbit data is extracted from the following two-line orbital elements,

1 27424U 02022A   25322.53238390  .00001624  00000-0  33565-3 0  9990
2 27424  98.4001 283.0242 0000655  63.7646  29.4341 14.61727967252497
Epoch (UTC): 18 November 2025 12:46:37
Eccentricity: 0.0000655
inclination: 98.4001°
perigee height: 687 km
apogee height: 688 km
right ascension of ascending node: 283.0242°
argument of perigee: 63.7646°
revolutions per day: 14.61727967
mean anomaly at epoch: 29.4341°
orbit number at epoch: 25249

The dashed part of the orbit path shows where the satellite is in the earth's shadow,  

DLR